DW7210 Weather Reports


Display with metric or nautical units.
time (UTC)temp
F
wind
direction
speed
MPH
gust
MPH
rain 1hr
in
rain 24hr
in
rain mn
in
humidity
%
barometer
mb
20260505101416 63 293 6.0 9.0 0.00 0.00 0.00 45 1013.3
20260505100416 63 315 4.0 7.0 0.00 0.00 0.00 45 1013.4
20260505095416 63 315 2.0 3.0 0.00 0.00 0.00 44 1013.5
20260505094436 63 315 2.0 4.0 0.00 0.00 0.00 44 1013.2
20260505093416 63 315 6.0 8.0 0.00 0.00 0.00 43 1013.1
20260505092416 64 315 5.0 9.0 0.00 0.00 0.00 43 1013.3
20260505091436 64 315 4.0 8.0 0.00 0.00 0.00 42 1013.4
20260505090416 64 293 7.0 11.0 0.00 0.00 0.00 42 1013.6
20260505085416 64 315 6.0 8.0 0.00 0.00 0.00 41 1013.7
20260505084416 65 315 5.0 9.0 0.00 0.00 0.00 40 1013.8
20260505083416 65 293 4.0 6.0 0.00 0.00 0.00 39 1014.0
20260505082416 65 315 4.0 9.0 0.00 0.00 0.00 39 1013.9
20260505081416 65 315 3.0 5.0 0.00 0.00 0.00 38 1013.7
20260505080436 66 315 3.0 5.0 0.00 0.00 0.00 37 1013.9
20260505075416 66 293 3.0 5.0 0.00 0.00 0.00 36 1014.3
20260505074416 66 293 5.0 6.0 0.00 0.00 0.00 35 1014.0
20260505073416 67 293 5.0 9.0 0.00 0.00 0.00 33 1014.1
20260505072416 67 293 4.0 7.0 0.00 0.00 0.00 31 1014.1
20260505071416 68 315 8.0 12.0 0.00 0.00 0.00 29 1013.9
20260505070436 68 293 4.0 7.0 0.00 0.00 0.00 28 1014.1
20260505065416 68 293 4.0 6.0 0.00 0.00 0.00 27 1013.5
20260505064416 68 293 3.0 6.0 0.00 0.00 0.00 27 1013.3
20260505063416 69 315 1.0 2.0 0.00 0.00 0.00 26 1013.9
20260505062416 69 293 2.0 4.0 0.00 0.00 0.00 26 1013.8
20260505061416 69 315 4.0 6.0 0.00 0.00 0.00 25 1013.5
20260505060416 70 0.0 1.0 0.00 0.00 0.00 25 1013.3
20260505055436 70 293 4.0 6.0 0.00 0.00 0.00 24 1013.4
20260505054416 70 293 2.0 4.0 0.00 0.00 0.00 24 1013.7
20260505053416 70 293 3.0 5.0 0.00 0.00 0.00 24 1013.5
20260505052416 71 270 2.0 6.0 0.00 0.00 0.00 23 1013.5
20260505051416 71 315 4.0 5.0 0.00 0.00 0.00 23 1013.4
20260505050416 71 338 4.0 6.0 0.00 0.00 0.00 22 1013.6
20260505041416 74 293 8.0 12.0 0.00 0.00 0.00 20 1013.0
20260505040436 74 315 4.0 8.0 0.00 0.00 0.00 20 1012.8
20260505035416 74 293 4.0 8.0 0.00 0.00 0.00 22 1012.8
20260505034436 75 293 3.0 6.0 0.00 0.00 0.00 23 1012.7
20260505033416 75 293 2.0 6.0 0.00 0.00 0.00 24 1012.8
20260505032416 75 225 3.0 10.0 0.00 0.00 0.00 23 1012.9
20260505031436 75 248 2.0 8.0 0.00 0.00 0.00 24 1012.6
20260505030416 75 293 2.0 8.0 0.00 0.00 0.00 24 1012.6
20260505025416 76 225 4.0 6.0 0.00 0.00 0.00 23 1012.4
20260505024456 76 203 3.0 5.0 0.00 0.00 0.00 23 1012.5
20260505023416 76 270 2.0 5.0 0.00 0.00 0.00 22 1012.2
20260505022416 76 225 3.0 7.0 0.00 0.00 0.00 22 1012.0
20260505021416 76 248 2.0 6.0 0.00 0.00 0.00 22 1011.9
20260505020416 77 270 3.0 6.0 0.00 0.00 0.00 21 1011.9
20260505015416 77 0.0 0.0 0.00 0.00 0.00 21 1011.5
20260505014416 77 293 2.0 5.0 0.00 0.00 0.00 21 1011.1
20260505013416 78 293 2.0 6.0 0.00 0.00 0.00 20 1011.1
20260505012416 78 293 5.0 9.0 0.00 0.00 0.00 20 1011.2
20260505011416 78 315 5.0 9.0 0.00 0.00 0.00 20 1011.2
20260505010416 79 293 2.0 3.0 0.00 0.00 0.00 20 1011.1
20260505005436 79 293 1.0 5.0 0.00 0.00 0.00 20 1011.0
20260505004416 79 315 6.0 14.0 0.00 0.00 0.00 19 1011.3
20260505003436 80 270 1.0 8.0 0.00 0.00 0.00 19 1011.5
20260505002416 80 315 6.0 12.0 0.00 0.00 0.00 18 1011.9
20260505001416 80 293 5.0 14.0 0.00 0.00 0.00 18 1011.7
20260505000436 80 315 5.0 9.0 0.00 0.00 0.00 17 1011.5
20260504235416 81 293 3.0 6.0 0.00 0.00 0.00 17 1011.7
20260504234416 81 225 3.0 7.0 0.00 0.00 0.00 17 1012.2
20260504233416 81 225 3.0 7.0 0.00 0.00 0.00 17 1012.3
20260504232416 81 315 4.0 11.0 0.00 0.00 0.00 16 1012.2
20260504231415 82 293 3.0 9.0 0.00 0.00 0.00 16 1012.1
20260504230416 82 225 8.0 15.0 0.00 0.00 0.00 15 1012.2
20260504225416 82 248 6.0 12.0 0.00 0.00 0.00 15 1012.3
20260504224416 82 225 6.0 14.0 0.00 0.00 0.00 15 1012.4
20260504223416 82 270 1.0 3.0 0.00 0.00 0.00 15 1012.4
20260504222416 83 225 5.0 11.0 0.00 0.00 0.00 14 1012.6
20260504221416 82 293 2.0 4.0 0.00 0.00 0.00 15 1013.1
20260504220415 82 293 7.0 14.0 0.00 0.00 0.00 14 1013.3
20260504215416 83 293 3.0 10.0 0.00 0.00 0.00 14 1013.8
20260504214416 82 270 3.0 10.0 0.00 0.00 0.00 14 1013.9
20260504213416 82 315 5.0 10.0 0.00 0.00 0.00 14 1014.0
20260504212415 83 0.0 2.0 0.00 0.00 0.00 15 1014.0
20260504211415 83 248 5.0 10.0 0.00 0.00 0.00 14 1014.6
20260504210415 83 270 4.0 9.0 0.00 0.00 0.00 14 1014.7
20260504205416 82 270 4.0 7.0 0.00 0.00 0.00 14 1014.5
20260504204436 83 248 4.0 9.0 0.00 0.00 0.00 14 1015.2
20260504203436 82 248 7.0 13.0 0.00 0.00 0.00 14 1015.3
20260504202415 81 180 1.0 4.0 0.00 0.00 0.00 14 1015.0
20260504201416 81 248 2.0 10.0 0.00 0.00 0.00 15 1015.2
20260504200416 81 293 6.0 11.0 0.00 0.00 0.00 15 1015.3
20260504195416 81 293 7.0 10.0 0.00 0.00 0.00 14 1015.6
20260504194416 80 270 3.0 6.0 0.00 0.00 0.00 18 1015.8
20260504193416 77 315 8.0 11.0 0.00 0.00 0.00 20 1015.4
20260504192436 78 293 3.0 6.0 0.00 0.00 0.00 20 1015.7
20260504191436 78 293 4.0 6.0 0.00 0.00 0.00 20 1016.1
20260504190416 80 293 9.0 17.0 0.00 0.00 0.00 19 1016.4
20260504185435 79 0.0 2.0 0.00 0.00 0.00 22 1016.1
20260504184416 77 225 6.0 10.0 0.00 0.00 0.00 23 1016.1
20260504183416 76 315 5.0 13.0 0.00 0.00 0.00 23 1016.0
20260504182415 76 293 7.0 11.0 0.00 0.00 0.00 23 1016.2
20260504181415 77 293 2.0 4.0 0.00 0.00 0.00 24 1016.5
20260504180416 76 315 6.0 9.0 0.00 0.00 0.00 24 1016.5
20260504175416 75 270 3.0 7.0 0.00 0.00 0.00 25 1016.8
20260504174416 75 315 4.0 6.0 0.00 0.00 0.00 25 1016.8
20260504173416 75 248 5.0 7.0 0.00 0.00 0.00 24 1016.7
20260504172415 75 225 8.0 13.0 0.00 0.00 0.00 24 1016.8
20260504171436 75 315 5.0 8.0 0.00 0.00 0.00 26 1017.0
20260504170416 75 293 5.0 10.0 0.00 0.00 0.00 25 1017.1
20260504150415 69 338 3.0 5.0 0.00 0.00 0.00 32 1016.8
20260504140415 66 315 3.0 4.0 0.00 0.00 0.00 34 1016.7
20260504130435 64 0.0 0.0 0.00 0.00 0.00 38 1016.4
20260504110435 63 0.0 0.0 0.00 0.00 0.00 41 1015.3